DW9356 Weather Reports


Display with metric or nautical units.
time (UTC)temp
F
wind
direction
speed
MPH
gust
MPH
rain 1hr
in
rain 24hr
in
rain mn
in
humidity
%
barometer
mb
20240519044017 78 176 0.0 2.0 0.00 0.00 0.00 89 1012.3
20240519043514 78 176 0.0 2.0 0.00 0.00 0.00 89 1012.2
20240519043009 78 176 0.0 0.0 0.00 0.00 0.00 88 1012.2
20240519042506 79 176 0.0 0.0 0.00 0.00 0.00 88 1012.2
20240519041940 79 176 0.0 0.0 0.00 0.00 0.00 87 1012.2
20240519041411 79 176 0.0 0.0 0.00 0.00 0.00 86 1012.1
20240519041133 80 176 0.0 1.0 0.00 0.00 0.00 85 1012.1
20240519040836 80 176 0.0 1.0 0.00 0.00 0.00 85 1012.0
20240519035857 80 176 0.0 0.0 0.00 0.00 0.00 84 1011.9
20240519035329 80 176 0.0 2.0 0.00 0.00 0.00 84 1011.9
20240519034827 81 176 1.0 2.0 0.00 0.00 0.00 84 1011.8
20240519034325 81 176 0.0 3.0 0.00 0.00 0.00 83 1011.8
20240519033759 81 176 1.0 3.0 0.00 0.00 0.00 83 1011.7
20240519033233 81 176 0.0 3.0 0.00 0.00 0.00 82 1011.7
20240519032707 82 177 0.0 3.0 0.00 0.00 0.00 82 1011.7
20240519032140 82 177 0.0 3.0 0.00 0.00 0.00 81 1011.6
20240519031637 82 177 1.0 3.0 0.00 0.00 0.00 81 1011.6
20240519031112 82 175 1.0 3.0 0.00 0.00 0.00 80 1011.6
20240519030543 83 177 1.0 3.0 0.00 0.00 0.00 80 1011.5
20240519030041 83 178 1.0 3.0 0.00 0.00 0.00 79 1011.4
20240519025515 83 177 1.0 4.0 0.00 0.00 0.00 79 1011.3
20240519024946 83 190 1.0 4.0 0.00 0.00 0.00 79 1011.3
20240519024441 83 212 2.0 4.0 0.00 0.00 0.00 78 1011.2
20240519023917 83 174 2.0 4.0 0.00 0.00 0.00 78 1011.2
20240519023349 83 129 1.0 4.0 0.00 0.00 0.00 78 1011.2
20240519022847 83 147 0.0 2.0 0.00 0.00 0.00 78 1011.1
20240519022320 83 146 0.0 3.0 0.00 0.00 0.00 78 1011.0
20240519021752 84 147 1.0 3.0 0.00 0.00 0.00 77 1010.8
20240519021225 84 136 1.0 2.0 0.00 0.00 0.00 77 1010.8
20240519020721 84 136 1.0 2.0 0.00 0.00 0.00 76 1010.7
20240519020416 84 136 1.0 4.0 0.00 0.00 0.00 76 1010.6
20240519015854 85 136 1.0 4.0 0.00 0.00 0.00 75 1010.5
20240519015103 85 154 2.0 7.0 0.00 0.00 0.00 75 1010.4
20240519014601 85 154 2.0 7.0 0.00 0.00 0.00 75 1010.4
20240519014058 85 146 2.0 5.0 0.00 0.00 0.00 74 1010.3
20240519013554 85 146 2.0 6.0 0.00 0.00 0.00 74 1010.4
20240519013248 85 126 2.0 6.0 0.00 0.00 0.00 74 1010.3
20240519012721 86 127 1.0 4.0 0.00 0.00 0.00 73 1010.3
20240519011958 86 127 2.0 5.0 0.00 0.00 0.00 72 1010.2
20240519011652 86 132 2.0 5.0 0.00 0.00 0.00 72 1010.1
20240519010906 87 115 2.0 3.0 0.00 0.00 0.00 71 1010.1
20240519010343 87 140 2.0 7.0 0.00 0.00 0.00 70 1010.1
20240519005846 87 140 2.0 7.0 0.00 0.00 0.00 69 1010.0
20240519005346 88 117 2.0 5.0 0.00 0.00 0.00 67 1010.0
20240519004844 88 169 2.0 5.0 0.00 0.00 0.00 66 1010.0
20240519004315 89 132 1.0 4.0 0.00 0.00 0.00 64 1009.9
20240519003813 90 130 1.0 4.0 0.00 0.00 0.00 62 1009.9
20240519003246 90 145 1.0 4.0 0.00 0.00 0.00 60 1009.8
20240519002743 91 184 1.0 3.0 0.00 0.00 0.00 61 1009.8
20240519002232 91 83 1.0 3.0 0.00 0.00 0.00 60 1009.8
20240519001733 92 83 1.0 5.0 0.00 0.00 0.00 59 1009.8
20240519001208 92 83 2.0 5.0 0.00 0.00 0.00 56 1009.9
20240519000640 92 96 1.0 5.0 0.00 0.00 0.00 57 1009.8
20240519000137 92 97 1.0 5.0 0.00 0.00 0.00 58 1009.7
20240519000112 92 96 2.0 5.0 0.00 0.00 0.00 58 1009.7
20240518235131 93 134 2.0 5.0 0.00 0.00 0.00 56 1009.6
20240518234824 94 107 2.0 5.0 0.00 0.00 0.00 55 1009.7
20240518234037 94 88 1.0 5.0 0.00 0.00 0.00 55 1009.7
20240518233512 94 90 1.0 5.0 0.00 0.00 0.00 54 1009.7
20240518233010 95 95 1.0 3.0 0.00 0.00 0.00 54 1009.7
20240518232435 95 94 1.0 3.0 0.00 0.00 0.00 56 1009.7
20240518231935 94 241 0.0 2.0 0.00 0.00 0.00 55 1009.7
20240518231416 94 241 1.0 2.0 0.00 0.00 0.00 55 1009.7
20240518230848 93 241 1.0 2.0 0.00 0.00 0.00 54 1009.7
20240518230327 93 241 0.0 2.0 0.00 0.00 0.00 56 1009.7
20240518225818 93 241 1.0 3.0 0.00 0.00 0.00 56 1009.7
20240518225250 92 242 1.0 3.0 0.00 0.00 0.00 57 1009.7
20240518224745 91 171 0.0 4.0 0.00 0.00 0.00 57 1009.8
20240518224238 91 171 1.0 4.0 0.00 0.00 0.00 59 1009.8
20240518223734 91 171 1.0 4.0 0.00 0.00 0.00 60 1009.8
20240518223231 91 171 1.0 4.0 0.00 0.00 0.00 60 1009.9
20240518222951 92 167 0.0 2.0 0.00 0.00 0.00 60 1009.9
20240518222201 92 167 1.0 4.0 0.00 0.00 0.00 57 1009.9
20240518221635 93 167 2.0 4.0 0.00 0.00 0.00 56 1009.9
20240518221328 93 169 2.0 5.0 0.00 0.00 0.00 56 1009.9
20240518220605 93 128 2.0 5.0 0.00 0.00 0.00 55 1010.0
20240518220312 93 143 2.0 4.0 0.00 0.00 0.00 57 1010.1
20240518215554 93 236 1.0 3.0 0.00 0.00 0.00 57 1010.0
20240518215029 93 236 1.0 3.0 0.00 0.00 0.00 59 1010.0
20240518214501 92 247 2.0 5.0 0.00 0.00 0.00 58 1010.0
20240518213958 92 207 2.0 5.0 0.00 0.00 0.00 60 1010.1
20240518213431 92 69 2.0 4.0 0.00 0.00 0.00 60 1010.2
20240518212928 92 109 2.0 4.0 0.00 0.00 0.00 62 1010.2
20240518212401 91 108 1.0 4.0 0.00 0.00 0.00 64 1010.2
20240518211857 91 178 1.0 3.0 0.00 0.00 0.00 65 1010.3
20240518211334 91 178 1.0 4.0 0.00 0.00 0.00 62 1010.4
20240518211034 91 179 2.0 4.0 0.00 0.00 0.00 62 1010.4
20240518210314 91 175 2.0 6.0 0.00 0.00 0.00 62 1010.4
20240518205812 91 175 2.0 6.0 0.00 0.00 0.00 62 1010.5
20240518205314 91 123 1.0 5.0 0.00 0.00 0.00 63 1010.6
20240518205249 91 161 1.0 5.0 0.00 0.00 0.00 63 1010.6
20240518204308 90 161 2.0 5.0 0.00 0.00 0.00 66 1010.6
20240518203739 89 161 3.0 7.0 0.00 0.00 0.00 63 1010.7
20240518203237 91 134 2.0 6.0 0.00 0.00 0.00 61 1010.7
20240518202709 91 249 2.0 4.0 0.00 0.00 0.00 62 1010.7
20240518202207 91 144 2.0 5.0 0.00 0.00 0.00 64 1010.8
20240518201704 90 99 2.0 7.0 0.00 0.00 0.00 68 1010.8
20240518201201 89 93 2.0 7.0 0.00 0.00 0.00 65 1010.8
20240518200900 90 123 1.0 5.0 0.00 0.00 0.00 65 1010.8
20240518200356 90 21 2.0 4.0 0.00 0.00 0.00 62 1010.8
20240518200034 90 71 1.0 5.0 0.00 0.00 0.00 63 1010.9
20240518195655 90 188 1.0 3.0 0.00 0.00 0.00 64 1010.9
20240518194534 91 260 2.0 5.0 0.00 0.00 0.00 65 1011.0
20240518194011 90 205 2.0 7.0 0.00 0.00 0.00 66 1011.0
20240518193509 90 228 2.0 7.0 0.00 0.00 0.00 66 1011.0
20240518193207 89 194 2.0 5.0 0.00 0.00 0.00 66 1011.1
20240518192658 90 101 3.0 7.0 0.00 0.00 0.00 66 1011.1
20240518191941 89 74 3.0 7.0 0.00 0.00 0.00 67 1011.1
20240518191413 89 164 3.0 7.0 0.00 0.00 0.00 66 1011.2
20240518190909 89 146 3.0 8.0 0.00 0.00 0.00 69 1011.2
20240518190407 89 76 2.0 8.0 0.00 0.00 0.00 68 1011.3
20240518190354 89 115 2.0 5.0 0.00 0.00 0.00 69 1011.3
20240518185622 89 281 2.0 7.0 0.00 0.00 0.00 67 1011.4
20240518184831 89 120 2.0 7.0 0.00 0.00 0.00 69 1011.4
20240518184551 88 122 3.0 5.0 0.00 0.00 0.00 71 1011.5
20240518184050 88 116 2.0 6.0 0.00 0.00 0.00 67 1011.5
20240518183321 89 138 2.0 6.0 0.00 0.00 0.00 67 1011.5
20240518183047 89 144 2.0 5.0 0.00 0.00 0.00 66 1011.6
20240518182525 89 252 1.0 4.0 0.00 0.00 0.00 68 1011.6
20240518181736 89 235 2.0 5.0 0.00 0.00 0.00 65 1011.6
20240518181457 88 118 3.0 8.0 0.00 0.00 0.00 65 1011.7
20240518180731 88 214 3.0 8.0 0.00 0.00 0.00 66 1011.8
20240518180204 88 173 2.0 5.0 0.00 0.00 0.00 68 1011.9
20240518175700 88 315 3.0 5.0 0.00 0.00 0.00 67 1011.9
20240518175135 88 146 3.0 7.0 0.00 0.00 0.00 70 1011.8
20240518174631 88 176 2.0 7.0 0.00 0.00 0.00 71 1011.7
20240518174127 87 150 2.0 7.0 0.00 0.00 0.00 70 1011.7
20240518173602 87 5 3.0 7.0 0.00 0.00 0.00 70 1011.7
20240518173255 87 114 2.0 6.0 0.00 0.00 0.00 72 1011.7
20240518172727 87 113 2.0 6.0 0.00 0.00 0.00 72 1011.8
20240518171942 87 137 2.0 7.0 0.00 0.00 0.00 70 1011.8
20240518171438 87 287 2.0 7.0 0.00 0.01 0.00 71 1011.8
20240518170911 86 229 1.0 4.0 0.00 0.01 0.00 71 1011.8
20240518170631 86 210 1.0 4.0 0.00 0.01 0.00 72 1011.8
20240518165842 86 210 1.0 3.0 0.00 0.01 0.00 71 1011.8
20240518165317 85 207 2.0 6.0 0.00 0.01 0.00 72 1011.8
20240518164751 85 294 1.0 6.0 0.00 0.01 0.00 70 1011.9
20240518164251 85 214 1.0 3.0 0.00 0.01 0.00 72 1011.9
20240518163723 85 214 1.0 3.0 0.00 0.01 0.00 73 1012.0
20240518163156 85 209 2.0 4.0 0.00 0.01 0.00 71 1012.0
20240518162907 85 205 2.0 4.0 0.00 0.01 0.00 73 1011.9
20240518162145 84 150 1.0 4.0 0.00 0.01 0.00 77 1011.9
20240518161639 84 269 1.0 4.0 0.00 0.01 0.00 75 1011.9
20240518161136 84 248 2.0 5.0 0.00 0.01 0.00 77 1011.8
20240518160610 84 159 2.0 5.0 0.00 0.01 0.00 75 1011.9
20240518160105 83 217 1.0 3.0 0.00 0.01 0.00 77 1011.8
20240518155541 83 202 2.0 4.0 0.00 0.01 0.00 79 1011.9
20240518155014 82 205 1.0 4.0 0.00 0.01 0.00 79 1011.8
20240518154733 82 264 2.0 5.0 0.00 0.01 0.00 79 1011.8
20240518154008 81 268 2.0 5.0 0.00 0.01 0.00 81 1011.8
20240518153505 80 141 1.0 4.0 0.00 0.01 0.00 83 1011.8
20240518153004 80 280 1.0 3.0 0.00 0.01 0.00 86 1011.9
20240518152436 78 283 1.0 5.0 0.00 0.01 0.00 88 1011.9
20240518151932 78 284 1.0 5.0 0.00 0.01 0.00 89 1011.8
20240518151417 78 17 1.0 4.0 0.00 0.01 0.00 93 1011.8
20240518150914 77 17 1.0 4.0 0.00 0.01 0.00 95 1011.8
20240518150413 76 5 1.0 3.0 0.00 0.01 0.00 97 1011.7
20240518150110 75 5 1.0 3.0 0.00 0.01 0.00 98 1011.7
20240518145350 74 355 1.0 4.0 0.00 0.01 0.00 98 1011.7
20240518144820 73 355 2.0 4.0 0.00 0.01 0.00 98 1011.6
20240518144254 73 320 2.0 3.0 0.00 0.01 0.00 98 1011.6
20240518143727 73 323 2.0 4.0 0.00 0.01 0.00 99 1011.7
20240518143223 72 319 1.0 3.0 0.00 0.01 0.00 98 1011.7
20240518142711 72 310 1.0 4.0 0.00 0.01 0.00 98 1011.6
20240518142211 71 355 1.0 4.0 0.00 0.01 0.00 98 1011.6
20240518141709 71 85 1.0 2.0 0.00 0.01 0.00 98 1011.5
20240518141358 72 178 1.0 2.0 0.00 0.01 0.00 99 1011.5
20240518140640 71 174 1.0 2.0 0.00 0.01 0.00 98 1011.5
20240518140126 71 175 1.0 2.0 0.00 0.01 0.00 98 1011.5
20240518135857 71 174 1.0 2.0 0.00 0.01 0.00 98 1011.5
20240518135119 71 174 1.0 3.0 0.00 0.01 0.00 98 1011.5
20240518134614 71 213 1.0 3.0 0.00 0.01 0.00 98 1011.4
20240518134110 71 211 0.0 1.0 0.00 0.01 0.00 99 1011.4
20240518133810 70 211 0.0 1.0 0.00 0.01 0.00 98 1011.4
20240518133020 70 276 0.0 2.0 0.00 0.01 0.00 98 1011.4
20240518132516 70 273 0.0 2.0 0.00 0.01 0.00 98 1011.3
20240518131951 70 273 0.0 1.0 0.00 0.01 0.00 98 1011.3
20240518131423 70 273 0.0 3.0 0.00 0.01 0.00 98 1011.2
20240518131125 70 273 1.0 3.0 0.00 0.01 0.00 98 1011.3
20240518130559 69 286 1.0 2.0 0.00 0.01 0.00 98 1011.3
20240518125836 69 294 0.0 2.0 0.00 0.01 0.00 98 1011.2
20240518125310 69 294 0.0 1.0 0.00 0.01 0.00 98 1011.0
20240518124746 69 294 0.0 2.0 0.00 0.01 0.00 98 1011.0
20240518124245 69 65 1.0 3.0 0.00 0.01 0.00 98 1010.9
20240518123717 69 344 0.0 3.0 0.00 0.01 0.00 98 1010.9
20240518123206 68 343 0.0 2.0 0.00 0.01 0.00 98 1011.0
20240518122704 68 343 0.0 2.0 0.00 0.01 0.00 98 1011.0
20240518122655 68 343 0.0 1.0 0.00 0.01 0.00 98 1011.1
20240518121641 67 343 0.0 1.0 0.00 0.01 0.00 98 1011.1
20240518121115 67 343 0.0 1.0 0.00 0.01 0.00 98 1011.1
20240518120548 67 343 0.0 1.0 0.00 0.01 0.00 98 1011.0
20240518120046 67 348 0.0 1.0 0.00 0.01 0.00 98 1010.9
20240518115520 67 93 0.0 1.0 0.00 0.01 0.00 98 1010.9
20240518114954 67 93 0.0 2.0 0.00 0.01 0.00 98 1010.9
20240518114427 67 93 0.0 1.0 0.00 0.01 0.00 98 1011.0
20240518114122 67 93 0.0 1.0 0.00 0.01 0.00 98 1011.0
20240518113401 67 93 0.0 0.0 0.00 0.01 0.00 98 1010.8
20240518112900 66 93 0.0 2.0 0.00 0.01 0.00 98 1010.6
20240518112401 66 93 1.0 2.0 0.00 0.01 0.00 98 1010.5
20240518111833 66 93 0.0 1.0 0.00 0.01 0.00 98 1010.6
20240518111332 66 93 0.0 0.0 0.00 0.01 0.00 98 1010.5
20240518111037 66 93 0.0 0.0 0.00 0.01 0.00 98 1010.4
20240518110316 65 93 0.0 0.0 0.00 0.01 0.00 98 1010.3
20240518105815 65 93 0.0 0.0 0.00 0.01 0.00 98 1010.2
20240518105312 65 93 0.0 0.0 0.00 0.01 0.00 98 1010.2
20240518104812 65 93 0.0 0.0 0.00 0.01 0.00 98 1010.1
20240518104311 65 93 0.0 0.0 0.00 0.01 0.00 98 1010.0
20240518103815 65 93 0.0 1.0 0.00 0.01 0.00 98 1010.0
20240518103250 65 93 0.0 1.0 0.00 0.01 0.00 98 1009.9
20240518102727 64 93 0.0 0.0 0.00 0.01 0.00 97 1009.8
20240518102201 64 93 0.0 0.0 0.00 0.01 0.00 97 1009.8
20240518101909 64 93 0.0 0.0 0.00 0.01 0.00 97 1009.7
20240518101138 65 93 0.0 1.0 0.00 0.01 0.00 97 1009.7
20240518100835 65 93 0.0 1.0 0.00 0.01 0.00 97 1009.6
20240518100043 65 93 0.0 0.0 0.00 0.01 0.00 97 1009.6
20240518095539 65 93 0.0 1.0 0.00 0.01 0.00 97 1009.5
20240518095018 64 93 0.0 1.0 0.00 0.01 0.00 97 1009.5
20240518094519 64 93 0.0 0.0 0.00 0.01 0.00 97 1009.5
20240518094013 64 93 0.0 0.0 0.00 0.01 0.00 97 1009.5
20240518093513 64 93 0.0 0.0 0.00 0.01 0.00 97 1009.4
20240518093508 64 93 0.0 0.0 0.00 0.01 0.00 97 1009.4
20240518092513 64 93 0.0 0.0 0.00 0.01 0.00 97 1009.5
20240518092010 64 93 0.0 0.0 0.00 0.01 0.00 97 1009.4
20240518091703 65 93 0.0 0.0 0.00 0.01 0.00 97 1009.5
20240518090922 65 93 0.0 0.0 0.00 0.01 0.00 97 1009.6
20240518090357 65 93 0.0 0.0 0.00 0.01 0.00 97 1009.6
20240518085831 65 93 0.0 0.0 0.00 0.01 0.00 97 1009.5
20240518085332 65 93 0.0 0.0 0.00 0.01 0.00 97 1009.6
20240518084809 65 93 0.0 0.0 0.00 0.01 0.00 97 1009.6
20240518084246 65 93 0.0 1.0 0.00 0.01 0.00 97 1009.6
20240518083745 65 93 0.0 1.0 0.00 0.01 0.00 97 1009.5
20240518083220 65 93 0.0 0.0 0.00 0.01 0.00 97 1009.3
20240518082655 65 93 0.0 0.0 0.00 0.01 0.00 97 1009.4
20240518082138 65 93 0.0 0.0 0.00 0.01 0.00 97 1009.4
20240518081636 65 93 0.0 0.0 0.00 0.01 0.00 97 1009.3
20240518081134 65 93 0.0 0.0 0.00 0.01 0.00 97 1009.4
20240518080631 65 93 0.0 0.0 0.00 0.01 0.00 97 1009.4
20240518080133 65 93 0.0 0.0 0.00 0.01 0.00 97 1009.4
20240518075632 65 93 0.0 0.0 0.00 0.01 0.00 97 1009.4
20240518075112 65 93 0.0 0.0 0.00 0.01 0.00 97 1009.5
20240518074551 65 93 0.0 0.0 0.00 0.01 0.00 97 1009.6
20240518074052 65 93 0.0 0.0 0.00 0.01 0.00 97 1009.5
20240518073526 65 93 0.0 0.0 0.00 0.01 0.00 97 1009.6
20240518073024 65 93 0.0 0.0 0.00 0.01 0.00 97 1009.5
20240518072526 65 93 0.0 0.0 0.00 0.01 0.00 97 1009.5
20240518072248 65 93 0.0 1.0 0.00 0.01 0.00 97 1009.5
20240518071523 65 93 0.0 0.0 0.00 0.01 0.00 97 1009.6
20240518071002 66 93 0.0 1.0 0.00 0.01 0.00 97 1009.7
20240518070504 66 93 0.0 0.0 0.00 0.01 0.00 97 1009.8
20240518065947 66 93 0.0 0.0 0.00 0.01 0.00 97 1009.7
20240518065713 66 93 0.0 0.0 0.00 0.01 0.00 97 1009.8
20240518064939 66 93 0.0 2.0 0.00 0.01 0.00 97 1009.7
20240518064440 66 93 0.0 2.0 0.00 0.01 0.00 97 1009.7
20240518063937 66 93 0.0 0.0 0.00 0.01 0.00 97 1009.7
20240518063436 66 93 0.0 0.0 0.00 0.01 0.00 97 1009.7
20240518062929 66 93 0.0 0.0 0.00 0.01 0.00 97 1009.7
20240518062643 66 93 0.0 0.0 0.00 0.01 0.00 96 1009.7
20240518061928 66 93 0.0 0.0 0.00 0.01 0.00 96 1009.8
20240518061417 66 93 0.0 0.0 0.00 0.01 0.00 96 1009.8
20240518061131 67 93 0.0 0.0 0.00 0.01 0.00 97 1009.8
20240518060413 67 93 0.0 0.0 0.00 0.01 0.00 96 1009.8
20240518055914 67 93 0.0 0.0 0.00 0.01 0.00 96 1009.8
20240518055413 67 93 0.0 0.0 0.00 0.01 0.00 96 1009.6
20240518054854 67 93 0.0 0.0 0.00 0.01 0.00 96 1009.6
20240518054332 67 93 0.0 0.0 0.00 0.01 0.00 96 1009.6
20240518053833 67 93 0.0 0.0 0.00 0.01 0.00 96 1009.7
20240518053317 67 93 0.0 0.0 0.00 0.01 0.00 96 1009.7
20240518052820 67 93 0.0 0.0 0.00 0.01 0.00 96 1009.8
20240518052258 67 93 0.0 0.0 0.00 0.01 0.00 96 1009.8
20240518051732 67 93 0.0 0.0 0.00 0.01 0.00 96 1009.6
20240518051207 68 93 0.0 0.0 0.00 0.01 0.00 96 1009.6
20240518050706 68 93 0.0 0.0 0.00 0.01 0.00 96 1009.6
20240518050208 68 93 0.0 0.0 0.00 0.01 0.00 96 1009.7
20240518045928 68 93 0.0 0.0 0.00 0.01 0.01 96 1009.7
20240518045205 68 93 0.0 0.0 0.00 0.01 0.01 96 1009.8
20240518044647 68 93 0.0 0.0 0.00 0.01 0.01 96 1009.8